{"data":{"norad_id":66510,"intl_designator":"2025-263AB","name":"STARLINK-35600","alt_names":[],"object_type":"PAYLOAD","status":"ACTIVE","operator":null,"country":"US","launch_date":"2025-11-15","launch_site_code":"AFETR","launch_vehicle":null,"mission":null,"orbit_class":"UNKNOWN","rcs_meters":null,"size_class":null,"mass_kg":null,"dimensions":null,"purposes":["comms"],"wikipedia_slug":null,"has_3d_model":false,"image_url":null,"decayed_at":null,"tle_current":{"epoch":"2026-09-20T11:13:14.036448Z","epoch_age_seconds":92481,"freshness":"FRESH","line1":"1 66510U 25263AB  26263.46752357  .00009483  00000+0  35357-3 0  9993","line2":"2 66510  42.9989 331.0354 0001476 275.8615  84.2069 15.27589988 48689","mean_motion":15.27589988,"eccentricity":0.0001476,"inclination_deg":42.9989,"raan_deg":331.0354,"arg_perigee_deg":275.8615,"mean_anomaly_deg":84.2069,"bstar":0.00035357,"rev_number":4868,"period_min":94.266132359595,"perigee_km":482.00648188402,"apogee_km":484.03189519087,"semimajor_km":6861.1561885374,"source":"CELESTRAK","updated_at":"2026-09-21T09:00:35.924384Z"}}}